Centerville, IA

10:43 PM CDT on April 22, 2018 (GMT -0500)
Centerville Municipal

Weather History for KTVK - August, 2012

Change the Weather History Date:

Thursday, August 2, 2012

  Actual Average Record
Temperature  
Mean Temperature 80 °F -  
Max Temperature 93 °F 85 °F 101 °F (1987)
Min Temperature 68 °F 63 °F 53 °F (1950)
Cooling Degree Days 16    
Growing Degree Days 30 (Base 50)    
Moisture  
Dew Point 63 °F    
Average Humidity 59    
Maximum Humidity 74    
Minimum Humidity 38    
Precipitation  
Precipitation 0.00 in - - ()
Sea Level Pressure  
Sea Level Pressure 29.83 in    
Wind  
Wind Speed 5 mph (ESE)    
Max Wind Speed 12 mph    
Max Gust Speed -    
Visibility 10 miles    
Events      
Averages and records for this station are not official NWS values.
T = Trace of Precipitation, MM = Missing Value Source: NWS Daily Summary

Daily Weather History Graph

Daily Weather History Graph

Search for Another Location

Airport or City:

Astronomy

Aug. 02, 2012 Rise Set
Actual Time 6:09 AM CDT 8:25 PM CDT
Civil Twilight 5:39 AM CDT 8:55 PM CDT
Nautical Twilight 5:01 AM CDT 9:33 PM CDT
Astronomical Twilight 4:20 AM CDT 10:14 PM CDT
Moon 8:30 PM CDT (8/2) 6:48 AM CDT (8/2)
Length of Visible Light 15h 16m
Length of Day
14h 15m
Full, 100% of the Moon is Illuminated
Aug 2
Full
Aug 9
Last Quarter
Aug 17
New
Aug 24
First Quarter
Aug 31
Full

Hourly Weather History & Observations

Time (CDT) Temp. Heat Index Dew Point Humidity Pressure Visibility Wind Dir Wind Speed Gust Speed Precip Events Conditions
12:15 AM 71.6 °F - 59.0 °F 64% 29.88 in 10.0 mi East 6.9 mph - N/A   Clear
12:35 AM 73.4 °F - 59.0 °F 61% 29.87 in 10.0 mi ESE 5.8 mph - N/A   Clear
12:55 AM 73.4 °F - 59.0 °F 61% 29.87 in 10.0 mi SE 4.6 mph - N/A   Clear
1:15 AM 71.6 °F - 59.0 °F 64% 29.87 in 10.0 mi ESE 5.8 mph - N/A   Clear
1:35 AM 71.6 °F - 59.0 °F 64% 29.86 in 10.0 mi ESE 3.5 mph - N/A   Clear
1:55 AM 71.6 °F - 59.0 °F 64% 29.86 in 10.0 mi SE 3.5 mph - N/A   Clear
2:15 AM 68.0 °F - 59.0 °F 73% 29.86 in 10.0 mi ESE 3.5 mph - N/A   Clear
2:35 AM 68.0 °F - 59.0 °F 73% 29.85 in 10.0 mi SE 3.5 mph - N/A   Clear
2:55 AM 68.0 °F - 59.0 °F 73% 29.85 in 10.0 mi SE 5.8 mph - N/A   Clear
3:15 AM 68.0 °F - 59.0 °F 73% 29.85 in 10.0 mi ESE 4.6 mph - N/A   Clear
3:35 AM 69.8 °F - 59.0 °F 68% 29.85 in 10.0 mi ESE 4.6 mph - N/A   Clear
4:15 AM 68.0 °F - 59.0 °F 73% 29.84 in 10.0 mi ESE 4.6 mph - N/A   Clear
4:35 AM 68.0 °F - 59.0 °F 73% 29.84 in 10.0 mi SE 5.8 mph - N/A   Clear
4:55 AM 68.0 °F - 59.0 °F 73% 29.83 in 10.0 mi ESE 4.6 mph - N/A   Clear
5:15 AM 68.0 °F - 59.0 °F 73% 29.84 in 10.0 mi ESE 3.5 mph - N/A   Clear
5:35 AM 68.0 °F - 59.0 °F 73% 29.84 in 10.0 mi ESE 4.6 mph - N/A   Clear
5:55 AM 68.0 °F - 59.0 °F 73% 29.84 in 10.0 mi SE 4.6 mph - N/A   Clear
6:15 AM 68.0 °F - 59.0 °F 73% 29.84 in 10.0 mi SE 4.6 mph - N/A   Clear
6:35 AM 69.8 °F - 59.0 °F 68% 29.84 in 10.0 mi SE 3.5 mph - N/A   Clear
6:55 AM 71.6 °F - 59.0 °F 64% 29.85 in 10.0 mi Calm Calm - N/A   Clear
7:15 AM 71.6 °F - 62.6 °F 73% 29.85 in 10.0 mi SE 3.5 mph - N/A   Clear
7:35 AM 71.6 °F - 60.8 °F 69% 29.85 in 10.0 mi SE 5.8 mph - N/A   Clear
7:55 AM 73.4 °F - 59.0 °F 61% 29.85 in 10.0 mi SE 4.6 mph - N/A   Clear
8:15 AM 73.4 °F - 60.8 °F 65% 29.87 in 10.0 mi SSW 5.8 mph - N/A   Clear
8:35 AM 75.2 °F - 60.8 °F 61% 29.85 in 10.0 mi SSE 6.9 mph - N/A   Clear
8:55 AM 77.0 °F - 60.8 °F 57% 29.84 in 10.0 mi SSE 5.8 mph - N/A   Clear
9:15 AM 77.0 °F - 60.8 °F 57% 29.84 in 10.0 mi South 5.8 mph - N/A   Clear
9:35 AM 77.0 °F - 60.8 °F 57% 29.85 in 10.0 mi SSW 3.5 mph - N/A   Clear
9:55 AM 78.8 °F - 62.6 °F 57% 29.84 in 10.0 mi Calm Calm - N/A   Clear
10:15 AM 78.8 °F - 62.6 °F 57% 29.84 in 10.0 mi NE 3.5 mph - N/A   Clear
10:55 AM 80.6 °F 81.8 °F 62.6 °F 54% 29.83 in 10.0 mi ENE 4.6 mph - N/A   Clear
11:15 AM 82.4 °F 83.9 °F 64.4 °F 54% 29.82 in 10.0 mi NE 6.9 mph - N/A   Clear
11:35 AM 84.2 °F 85.6 °F 64.4 °F 51% 29.82 in 10.0 mi ENE 6.9 mph - N/A   Clear
11:55 AM 86.0 °F 87.3 °F 64.4 °F 48% 29.81 in 10.0 mi ENE 8.1 mph - N/A   Clear
12:15 PM 86.0 °F 87.3 °F 64.4 °F 48% 29.82 in 10.0 mi ENE 10.4 mph - N/A   Clear
12:35 PM 89.6 °F 91.1 °F 64.4 °F 43% 29.81 in 10.0 mi ENE 11.5 mph - N/A   Clear
12:55 PM 89.6 °F 92.2 °F 66.2 °F 46% 29.82 in 10.0 mi NE 6.9 mph - N/A   Clear
1:15 PM 89.6 °F 92.2 °F 66.2 °F 46% 29.82 in 10.0 mi ENE 8.1 mph - N/A   Clear
1:35 PM 89.6 °F 92.2 °F 66.2 °F 46% 29.82 in 10.0 mi ENE 9.2 mph - N/A   Clear
2:15 PM 91.4 °F 94.0 °F 66.2 °F 43% 29.81 in 10.0 mi East 8.1 mph - N/A   Clear
2:35 PM 93.2 °F 96.2 °F 66.2 °F 41% 29.81 in 10.0 mi East 10.4 mph - N/A   Clear
3:15 PM 93.2 °F 96.2 °F 66.2 °F 41% 29.80 in 10.0 mi ENE 4.6 mph - N/A   Clear
3:35 PM 93.2 °F 96.2 °F 66.2 °F 41% 29.80 in 10.0 mi SE 6.9 mph - N/A   Clear
3:55 PM 93.2 °F 96.2 °F 66.2 °F 41% 29.80 in 10.0 mi SE 10.4 mph - N/A   Clear
4:15 PM 93.2 °F 94.9 °F 64.4 °F 38% 29.80 in 10.0 mi SE 9.2 mph - N/A   Clear
4:35 PM 93.2 °F 96.2 °F 66.2 °F 41% 29.79 in 10.0 mi SE 6.9 mph - N/A   Clear
4:55 PM 93.2 °F 96.2 °F 66.2 °F 41% 29.79 in 10.0 mi SSE 8.1 mph - N/A   Clear
5:35 PM 93.2 °F 96.2 °F 66.2 °F 41% 29.79 in 10.0 mi SE 5.8 mph - N/A   Partly Cloudy
6:15 PM 91.4 °F 94.0 °F 66.2 °F 43% 29.79 in 10.0 mi East 5.8 mph - N/A   Clear
6:35 PM 91.4 °F 94.0 °F 66.2 °F 43% 29.79 in 10.0 mi East 6.9 mph - N/A   Clear
6:55 PM 91.4 °F 94.0 °F 66.2 °F 43% 29.79 in 10.0 mi East 5.8 mph - N/A   Clear
7:15 PM 89.6 °F 92.2 °F 66.2 °F 46% 29.80 in 10.0 mi East 4.6 mph - N/A   Clear
7:35 PM 86.0 °F 89.4 °F 68.0 °F 55% 29.80 in 10.0 mi East 3.5 mph - N/A   Clear
7:55 PM 84.2 °F 87.3 °F 68.0 °F 58% 29.80 in 10.0 mi SSE 4.6 mph - N/A   Clear
8:15 PM 82.4 °F 85.4 °F 68.0 °F 62% 29.81 in 10.0 mi SSE 3.5 mph - N/A   Clear
8:35 PM 82.4 °F 85.4 °F 68.0 °F 62% 29.81 in 10.0 mi Calm Calm - N/A   Clear
8:55 PM 80.6 °F 83.9 °F 69.8 °F 70% 29.81 in 10.0 mi Calm Calm - N/A   Clear
9:15 PM 80.6 °F 83.2 °F 68.0 °F 65% 29.82 in 10.0 mi Calm Calm - N/A   Clear
9:35 PM 78.8 °F - 68.0 °F 69% 29.83 in 10.0 mi East 3.5 mph - N/A   Clear
9:55 PM 80.6 °F 83.2 °F 68.0 °F 65% 29.83 in 10.0 mi East 5.8 mph - N/A   Clear
10:55 PM 77.0 °F - 68.0 °F 74% 29.84 in 10.0 mi ENE 3.5 mph - N/A   Clear
11:15 PM 77.0 °F - 68.0 °F 74% 29.84 in 10.0 mi NE 3.5 mph - N/A   Clear
11:35 PM 77.0 °F - 68.0 °F 74% 29.84 in 10.0 mi ENE 4.6 mph - N/A   Clear